User: anonymous   Login
Location: Hiram
(41.3130°N, 81.1440°W)
Time: 19:13:03
(UTC-04:00)
Language:

Iridium 62 - Orbit

View from above orbital plane
View from above orbital plane
View from above satellite
View from above satellite

Ground track
Ground track

The orbit data is extracted from the following two-line orbital elements,

1 25285U 98021A   15144.45787787  .00000066  00000-0  16538-4 0  9999
2 25285 086.3977 179.3947 0002262 089.8281 270.3174 14.34215647896848
Epoch (UTC): 24 May 2015 10:59:20
Eccentricity: 0.0002262
inclination: 86.3977°
perigee height: 776 km
apogee height: 779 km
right ascension of ascending node: 179.3947°
argument of perigee: 89.8281°
revolutions per day: 14.34215647
mean anomaly at epoch: 270.3174°
orbit number at epoch: 89684

The dashed part of the orbit path shows where the satellite is in the earth's shadow,  

DLR